Tracking 35237 objects as of 6-Sep-2026
HD Live streaming from Space Station
objects crossing your sky now

STARLINK-36199

Track STARLINK-36199 now!
10-day predictions
STARLINK-36199 is classified as:


NORAD ID: 67213
Int'l Code: 2025-304X
Launch date: December 17, 2025
Source: United States (US)
Launch site: AIR FORCE WESTERN TEST RANGE (AFWTR)
Your satellite tracking list
Your tracking list is empty




NASA's NSSDC Master Catalog

Two Line Element Set (TLE):
1 67213U 25304X   26249.64044289  .00002906  00000-0  25127-3 0  9990
2 67213  69.9998  78.0386 0002778 271.0733  89.0108 14.98329378 40992
Source of the keplerian elements: AFSPC